| time (UTC) | temp C | wind direction | speed KPH | gust KPH | rain 1hr cm | rain 24hr cm | rain mn cm | humidity % | barometer mb |
| 20260504150405 | 20 | 154 | 4.8 | 9.7 | 0.00 | 0.00 | 0.00 | 45 | 1012.1 |
| 20260504140909 | 17 | 145 | 1.6 | 11.3 | 0.00 | 0.00 | 0.00 | 51 | 1012.2 |
| 20260504140905 | 17 | 180 | 3.2 | 8.0 | 0.00 | 0.00 | 0.00 | 48 | 1012.2 |
| 20260504130402 | 13 | 114 | 3.2 | 8.0 | 0.00 | 0.00 | 0.00 | 64 | 1012.7 |
| 20260504110400 | 7 | 142 | 0.0 | 1.6 | 0.00 | 0.00 | 0.00 | 85 | 1013.4 |
| 20260504100351 | -17 | 0.0 | 0.0 | 0.00 | 0.00 | 0.00 | 1013.2 | ||
| 20260504081957 | 6 | 144 | 0.0 | 0.0 | 0.00 | 0.00 | 0.00 | 85 | 1013.5 |
| 20260504081455 | 6 | 144 | 0.0 | 0.0 | 0.00 | 0.00 | 0.00 | 85 | 1013.5 |
| 20260504080333 | 6 | 144 | 0.0 | 0.0 | 0.00 | 0.00 | 0.00 | 85 | 1013.6 |
| 20260504070337 | 5 | 144 | 0.0 | 0.0 | 0.00 | 0.00 | 0.00 | 85 | 1013.7 |
| 20260504070332 | 5 | 144 | 0.0 | 0.0 | 0.00 | 0.00 | 0.00 | 84 | 1013.7 |
| 20260504050330 | 5 | 144 | 0.0 | 0.0 | 0.00 | 0.00 | 0.00 | 79 | 1014.2 |
| 20260504045829 | 5 | 144 | 0.0 | 0.0 | 0.00 | 0.00 | 0.00 | 78 | 1014.3 |
| 20260504045330 | 5 | 144 | 0.0 | 0.0 | 0.00 | 0.00 | 0.00 | 77 | 1014.3 |
| 20260504044828 | 5 | 144 | 0.0 | 0.0 | 0.00 | 0.00 | 0.00 | 77 | 1014.3 |
| 20260504044328 | 5 | 144 | 0.0 | 0.0 | 0.00 | 0.00 | 0.00 | 77 | 1014.2 |
| 20260504043835 | 6 | 144 | 0.0 | 0.0 | 0.00 | 0.00 | 0.00 | 75 | 1014.2 |
| 20260504043829 | 5 | 144 | 0.0 | 0.0 | 0.00 | 0.00 | 0.00 | 76 | 1014.2 |
| 20260504042828 | 6 | 144 | 0.0 | 0.0 | 0.00 | 0.00 | 0.00 | 75 | 1014.2 |
| 20260504042328 | 6 | 144 | 0.0 | 0.0 | 0.00 | 0.00 | 0.00 | 74 | 1014.0 |
| 20260504041834 | 7 | 144 | 0.0 | 1.6 | 0.00 | 0.00 | 0.00 | 70 | 1014.1 |
| 20260504041828 | 7 | 144 | 0.0 | 0.0 | 0.00 | 0.00 | 0.00 | 71 | 1014.1 |
| 20260504040828 | 7 | 144 | 0.0 | 4.8 | 0.00 | 0.00 | 0.00 | 71 | 1014.1 |
| 20260504040329 | 6 | 151 | 1.6 | 4.8 | 0.00 | 0.00 | 0.00 | 72 | 1014.1 |
| 20260504035828 | 6 | 138 | 0.0 | 1.6 | 0.00 | 0.00 | 0.00 | 72 | 1014.0 |
| 20260504035327 | 6 | 145 | 0.0 | 0.0 | 0.00 | 0.00 | 0.00 | 72 | 1014.0 |
| 20260504034832 | 6 | 145 | 0.0 | 0.0 | 0.00 | 0.00 | 0.00 | 72 | 1014.0 |
| 20260504034826 | 6 | 145 | 0.0 | 0.0 | 0.00 | 0.00 | 0.00 | 72 | 1013.9 |
| 20260504034446 | 6 | 145 | 0.0 | 1.6 | 0.00 | 0.00 | 0.00 | 73 | 1013.9 |
| 20260504033332 | 6 | 145 | 0.0 | 0.0 | 0.00 | 0.00 | 0.00 | 73 | 1013.8 |
| 20260504033327 | 6 | 145 | 0.0 | 1.6 | 0.00 | 0.00 | 0.00 | 74 | 1014.0 |
| 20260504032328 | 6 | 145 | 0.0 | 0.0 | 0.00 | 0.00 | 0.00 | 71 | 1013.7 |
| 20260504031828 | 6 | 145 | 0.0 | 0.0 | 0.00 | 0.00 | 0.00 | 70 | 1013.8 |
| 20260504031326 | 6 | 145 | 0.0 | 0.0 | 0.00 | 0.00 | 0.00 | 69 | 1013.8 |
| 20260504030827 | 6 | 145 | 0.0 | 0.0 | 0.00 | 0.00 | 0.00 | 70 | 1013.7 |
| 20260504030327 | 6 | 145 | 0.0 | 1.6 | 0.00 | 0.00 | 0.00 | 71 | 1013.7 |
| 20260504025827 | 6 | 145 | 0.0 | 1.6 | 0.00 | 0.00 | 0.00 | 72 | 1013.7 |
| 20260504025326 | 6 | 145 | 0.0 | 1.6 | 0.00 | 0.00 | 0.00 | 71 | 1013.6 |
| 20260504024826 | 6 | 145 | 0.0 | 0.0 | 0.00 | 0.00 | 0.00 | 69 | 1013.6 |
| 20260504024327 | 6 | 145 | 0.0 | 0.0 | 0.00 | 0.00 | 0.00 | 69 | 1013.6 |
| 20260504023825 | 7 | 145 | 0.0 | 0.0 | 0.00 | 0.00 | 0.00 | 69 | 1013.6 |
| 20260504023330 | 7 | 145 | 0.0 | 1.6 | 0.00 | 0.00 | 0.00 | 67 | 1013.4 |
| 20260504023325 | 7 | 145 | 0.0 | 1.6 | 0.00 | 0.00 | 0.00 | 68 | 1013.5 |
| 20260504022331 | 7 | 145 | 0.0 | 0.0 | 0.00 | 0.00 | 0.00 | 67 | 1013.4 |
| 20260504022325 | 7 | 145 | 0.0 | 1.6 | 0.00 | 0.00 | 0.00 | 66 | 1013.4 |
| 20260504021325 | 7 | 145 | 0.0 | 1.6 | 0.00 | 0.00 | 0.00 | 67 | 1013.4 |
| 20260504020826 | 7 | 145 | 0.0 | 1.6 | 0.00 | 0.00 | 0.00 | 67 | 1013.4 |
| 20260504020326 | 8 | 145 | 1.6 | 1.6 | 0.00 | 0.00 | 0.00 | 65 | 1013.5 |
| 20260504015825 | 8 | 145 | 0.0 | 0.0 | 0.00 | 0.00 | 0.00 | 63 | 1013.4 |
| 20260504015329 | 8 | 145 | 0.0 | 0.0 | 0.00 | 0.00 | 0.00 | 60 | 1013.3 |
| 20260504015324 | 8 | 145 | 0.0 | 0.0 | 0.00 | 0.00 | 0.00 | 60 | 1013.4 |
| 20260504014444 | 9 | 145 | 0.0 | 1.6 | 0.00 | 0.00 | 0.00 | 57 | 1013.2 |
| 20260504014331 | 9 | 145 | 0.0 | 0.0 | 0.00 | 0.00 | 0.00 | 57 | 1013.2 |
| 20260504014326 | 9 | 145 | 0.0 | 0.0 | 0.00 | 0.00 | 0.00 | 58 | 1013.3 |
| 20260504012824 | 10 | 145 | 0.0 | 1.6 | 0.00 | 0.00 | 0.00 | 56 | 1013.1 |
| 20260504012327 | 10 | 145 | 0.0 | 1.6 | 0.00 | 0.00 | 0.00 | 53 | 1013.1 |
| 20260504012323 | 10 | 145 | 1.6 | 1.6 | 0.00 | 0.00 | 0.00 | 54 | 1013.1 |
| 20260504011323 | 10 | 145 | 0.0 | 1.6 | 0.00 | 0.00 | 0.00 | 52 | 1013.1 |
| 20260504010830 | 10 | 145 | 1.6 | 1.6 | 0.00 | 0.00 | 0.00 | 53 | 1013.1 |
| 20260504010823 | 10 | 145 | 0.0 | 1.6 | 0.00 | 0.00 | 0.00 | 52 | 1013.0 |
| 20260504005828 | 11 | 145 | 0.0 | 1.6 | 0.00 | 0.00 | 0.00 | 50 | 1013.0 |
| 20260504005824 | 11 | 145 | 0.0 | 0.0 | 0.00 | 0.00 | 0.00 | 51 | 1013.0 |
| 20260504004826 | 11 | 145 | 1.6 | 1.6 | 0.00 | 0.00 | 0.00 | 48 | 1013.0 |
| 20260504004822 | 11 | 145 | 0.0 | 1.6 | 0.00 | 0.00 | 0.00 | 49 | 1012.9 |
| 20260504003824 | 11 | 145 | 0.0 | 3.2 | 0.00 | 0.00 | 0.00 | 48 | 1012.9 |
| 20260504003323 | 12 | 145 | 0.0 | 3.2 | 0.00 | 0.00 | 0.00 | 47 | 1012.9 |
| 20260504002823 | 12 | 154 | 0.0 | 1.6 | 0.00 | 0.00 | 0.00 | 44 | 1012.9 |
| 20260504002322 | 12 | 154 | 0.0 | 1.6 | 0.00 | 0.00 | 0.00 | 43 | 1012.8 |
| 20260504001822 | 13 | 157 | 1.6 | 1.6 | 0.00 | 0.00 | 0.00 | 43 | 1012.8 |
| 20260504001322 | 13 | 135 | 0.0 | 1.6 | 0.00 | 0.00 | 0.00 | 42 | 1012.8 |
| 20260504000822 | 13 | 135 | 0.0 | 1.6 | 0.00 | 0.00 | 0.00 | 41 | 1012.7 |
| 20260504000323 | 13 | 135 | 0.0 | 1.6 | 0.00 | 0.00 | 0.00 | 39 | 1012.7 |
| 20260503235821 | 14 | 120 | 0.0 | 0.0 | 0.00 | 0.00 | 0.00 | 38 | 1012.7 |
| 20260503235326 | 14 | 118 | 0.0 | 0.0 | 0.00 | 0.00 | 0.00 | 37 | 1012.5 |
| 20260503235322 | 14 | 118 | 0.0 | 0.0 | 0.00 | 0.00 | 0.00 | 37 | 1012.6 |
| 20260503234323 | 15 | 117 | 0.0 | 0.0 | 0.00 | 0.00 | 0.00 | 37 | 1012.5 |
| 20260503233822 | 15 | 195 | 0.0 | 0.0 | 0.00 | 0.00 | 0.00 | 37 | 1012.6 |
| 20260503233325 | 15 | 257 | 0.0 | 3.2 | 0.00 | 0.00 | 0.00 | 34 | 1012.5 |
| 20260503233321 | 15 | 257 | 0.0 | 0.0 | 0.00 | 0.00 | 0.00 | 36 | 1012.5 |
| 20260503232320 | 16 | 341 | 0.0 | 3.2 | 0.00 | 0.00 | 0.00 | 34 | 1012.4 |
| 20260503231821 | 16 | 341 | 0.0 | 3.2 | 0.00 | 0.00 | 0.00 | 33 | 1012.4 |
| 20260503231441 | 17 | 286 | 0.0 | 3.2 | 0.00 | 0.00 | 0.00 | 32 | 1012.3 |
| 20260503231327 | 16 | 233 | 0.0 | 3.2 | 0.00 | 0.00 | 0.00 | 32 | 1012.3 |
| 20260503231322 | 16 | 327 | 0.0 | 3.2 | 0.00 | 0.00 | 0.00 | 33 | 1012.3 |
| 20260503230441 | 17 | 90 | 0.0 | 1.6 | 0.00 | 0.00 | 0.00 | 32 | 1012.2 |
| 20260503225939 | 17 | 85 | 0.0 | 3.2 | 0.00 | 0.00 | 0.00 | 31 | 1012.2 |
| 20260503224821 | 18 | 233 | 0.0 | 8.0 | 0.00 | 0.00 | 0.00 | 30 | 1012.2 |
| 20260503224320 | 18 | 227 | 1.6 | 8.0 | 0.00 | 0.00 | 0.00 | 29 | 1012.1 |
| 20260503223820 | 18 | 141 | 0.0 | 3.2 | 0.00 | 0.00 | 0.00 | 29 | 1012.2 |
| 20260503223321 | 18 | 152 | 0.0 | 4.8 | 0.00 | 0.00 | 0.00 | 29 | 1012.1 |
| 20260503222820 | 18 | 341 | 0.0 | 8.0 | 0.00 | 0.00 | 0.00 | 30 | 1012.2 |
| 20260503222321 | 18 | 241 | 0.0 | 11.3 | 0.00 | 0.00 | 0.00 | 30 | 1012.3 |
| 20260503221819 | 18 | 58 | 0.0 | 11.3 | 0.00 | 0.00 | 0.00 | 30 | 1012.4 |
| 20260503221324 | 18 | 312 | 0.0 | 6.4 | 0.00 | 0.00 | 0.00 | 30 | 1012.4 |
| 20260503221319 | 18 | 0 | 0.0 | 8.0 | 0.00 | 0.00 | 0.00 | 29 | 1012.4 |
| 20260503220941 | 18 | 329 | 1.6 | 9.7 | 0.00 | 0.00 | 0.00 | 29 | 1012.3 |
| 20260503220318 | 18 | 0 | 3.2 | 6.4 | 0.00 | 0.00 | 0.00 | 30 | 1012.4 |
| 20260503215324 | 18 | 251 | 1.6 | 8.0 | 0.00 | 0.00 | 0.00 | 29 | 1012.3 |
| 20260503215319 | 18 | 158 | 1.6 | 9.7 | 0.00 | 0.00 | 0.00 | 29 | 1012.5 |
| 20260503214818 | 18 | 121 | 0.0 | 8.0 | 0.00 | 0.00 | 0.00 | 30 | 1012.4 |
| 20260503213818 | 18 | 145 | 1.6 | 8.0 | 0.00 | 0.00 | 0.00 | 31 | 1012.4 |
| 20260503213323 | 18 | 165 | 1.6 | 6.4 | 0.00 | 0.00 | 0.00 | 29 | 1012.5 |
| 20260503213318 | 18 | 252 | 1.6 | 8.0 | 0.00 | 0.00 | 0.00 | 29 | 1012.5 |
| 20260503212318 | 19 | 245 | 1.6 | 6.4 | 0.00 | 0.00 | 0.00 | 30 | 1012.5 |
| 20260503211818 | 18 | 157 | 0.0 | 6.4 | 0.00 | 0.00 | 0.00 | 33 | 1012.5 |
| 20260503211318 | 18 | 327 | 1.6 | 8.0 | 0.00 | 0.00 | 0.00 | 31 | 1012.4 |
| 20260503210818 | 18 | 111 | 1.6 | 8.0 | 0.00 | 0.00 | 0.00 | 31 | 1012.5 |
| 20260503210319 | 18 | 228 | 1.6 | 9.7 | 0.00 | 0.00 | 0.00 | 29 | 1012.4 |
| 20260503205818 | 18 | 341 | 3.2 | 9.7 | 0.00 | 0.00 | 0.00 | 29 | 1012.5 |
| 20260503205317 | 18 | 354 | 3.2 | 9.7 | 0.00 | 0.00 | 0.00 | 28 | 1012.5 |
| 20260503204818 | 18 | 326 | 3.2 | 9.7 | 0.00 | 0.00 | 0.00 | 30 | 1012.6 |
| 20260503204322 | 18 | 148 | 3.2 | 8.0 | 0.00 | 0.00 | 0.00 | 32 | 1012.6 |
| 20260503204317 | 18 | 230 | 1.6 | 9.7 | 0.00 | 0.00 | 0.00 | 28 | 1012.6 |
| 20260503203817 | 18 | 71 | 1.6 | 9.7 | 0.00 | 0.00 | 0.00 | 33 | 1012.6 |
| 20260503203435 | 18 | 255 | 3.2 | 8.0 | 0.00 | 0.00 | 0.00 | 29 | 1012.7 |
| 20260503202937 | 18 | 285 | 3.2 | 9.7 | 0.00 | 0.00 | 0.00 | 33 | 1012.6 |
| 20260503202318 | 18 | 314 | 1.6 | 9.7 | 0.00 | 0.00 | 0.00 | 29 | 1012.5 |
| 20260503201317 | 18 | 0 | 0.0 | 6.4 | 0.00 | 0.00 | 0.00 | 31 | 1012.7 |
| 20260503200817 | 18 | 6 | 1.6 | 6.4 | 0.00 | 0.00 | 0.00 | 31 | 1012.9 |
| 20260503200316 | 18 | 145 | 0.0 | 6.4 | 0.00 | 0.00 | 0.00 | 37 | 1012.9 |
| 20260503195816 | 18 | 141 | 1.6 | 8.0 | 0.00 | 0.00 | 0.00 | 32 | 1013.0 |
| 20260503195316 | 18 | 193 | 1.6 | 8.0 | 0.00 | 0.00 | 0.00 | 34 | 1013.2 |
| 20260503194817 | 18 | 145 | 0.0 | 16.1 | 0.00 | 0.00 | 0.00 | 32 | 1013.3 |
| 20260503194316 | 17 | 337 | 3.2 | 16.1 | 0.00 | 0.00 | 0.00 | 32 | 1013.3 |
| 20260503193816 | 17 | 18 | 1.6 | 11.3 | 0.00 | 0.00 | 0.00 | 33 | 1013.4 |
| 20260503193316 | 17 | 343 | 3.2 | 11.3 | 0.00 | 0.00 | 0.00 | 32 | 1013.5 |
| 20260503192816 | 17 | 149 | 0.0 | 9.7 | 0.00 | 0.00 | 0.00 | 38 | 1013.5 |
| 20260503192315 | 17 | 320 | 3.2 | 9.7 | 0.00 | 0.00 | 0.00 | 32 | 1013.6 |
| 20260503191815 | 17 | 309 | 3.2 | 11.3 | 0.00 | 0.00 | 0.00 | 32 | 1013.8 |
| 20260503191315 | 16 | 312 | 3.2 | 11.3 | 0.00 | 0.00 | 0.00 | 33 | 1013.8 |
| 20260503190816 | 16 | 353 | 0.0 | 11.3 | 0.00 | 0.00 | 0.00 | 39 | 1013.8 |
| 20260503190315 | 16 | 237 | 1.6 | 22.5 | 0.00 | 0.00 | 0.00 | 34 | 1013.9 |
| 20260503185815 | 16 | 116 | 4.8 | 22.5 | 0.00 | 0.00 | 0.00 | 35 | 1013.8 |
| 20260503185315 | 16 | 213 | 1.6 | 16.1 | 0.00 | 0.00 | 0.00 | 32 | 1014.0 |
| 20260503184820 | 16 | 309 | 6.4 | 16.1 | 0.00 | 0.00 | 0.00 | 33 | 1014.1 |
| 20260503184815 | 16 | 255 | 0.0 | 16.1 | 0.00 | 0.00 | 0.00 | 35 | 1013.9 |
| 20260503183817 | 16 | 35 | 3.2 | 16.1 | 0.00 | 0.00 | 0.00 | 33 | 1014.1 |
| 20260503183314 | 16 | 326 | 1.6 | 16.1 | 0.00 | 0.00 | 0.00 | 36 | 1014.2 |
| 20260503182814 | 16 | 10 | 4.8 | 16.1 | 0.00 | 0.00 | 0.00 | 33 | 1014.2 |
| 20260503182314 | 16 | 336 | 1.6 | 16.1 | 0.00 | 0.00 | 0.00 | 36 | 1014.2 |
| 20260503181819 | 16 | 45 | 3.2 | 11.3 | 0.00 | 0.00 | 0.00 | 33 | 1014.2 |
| 20260503181815 | 16 | 48 | 3.2 | 11.3 | 0.00 | 0.00 | 0.00 | 34 | 1014.1 |
| 20260503181437 | 16 | 295 | 1.6 | 9.7 | 0.00 | 0.00 | 0.00 | 41 | 1014.3 |
| 20260503180320 | 15 | 162 | 1.6 | 9.7 | 0.00 | 0.00 | 0.00 | 37 | 1014.4 |
| 20260503180314 | 16 | 329 | 3.2 | 9.7 | 0.00 | 0.00 | 0.00 | 38 | 1014.2 |
| 20260503175314 | 16 | 341 | 4.8 | 16.1 | 0.00 | 0.00 | 0.00 | 38 | 1014.5 |
| 20260503174813 | 16 | 331 | 3.2 | 16.1 | 0.00 | 0.00 | 0.00 | 37 | 1014.5 |
| 20260503174313 | 15 | 197 | 1.6 | 16.1 | 0.00 | 0.00 | 0.00 | 38 | 1014.6 |
| 20260503173813 | 15 | 337 | 1.6 | 16.1 | 0.00 | 0.00 | 0.00 | 42 | 1014.7 |
| 20260503173314 | 15 | 350 | 3.2 | 14.5 | 0.00 | 0.00 | 0.00 | 41 | 1014.7 |
| 20260503172812 | 15 | 99 | 1.6 | 14.5 | 0.00 | 0.00 | 0.00 | 43 | 1014.7 |
| 20260503172313 | 15 | 244 | 4.8 | 14.5 | 0.00 | 0.00 | 0.00 | 39 | 1014.7 |
| 20260503171814 | 14 | 295 | 3.2 | 14.5 | 0.00 | 0.00 | 0.00 | 40 | 1014.7 |
| 20260503171312 | 14 | 78 | 3.2 | 11.3 | 0.00 | 0.00 | 0.00 | 41 | 1014.6 |
| 20260503170812 | 14 | 241 | 1.6 | 11.3 | 0.00 | 0.00 | 0.00 | 38 | 1014.8 |
| 20260503170312 | 15 | 334 | 4.8 | 11.3 | 0.00 | 0.00 | 0.00 | 40 | 1014.9 |